Home > Weather > Foochow > Past weeks

Flag for China Past Weather in Foochow, Fujian, China — Yesterday and Last 2 Weeks

Now
88 °F

Passing clouds.


Feels Like: 102 °F
Forecast: 75 / 97 °F
Wind: 10 mph from South

Location: Fuzhou Airport

Current Time: Jul 28, 2016 at 6:39:19 PM

Latest Report: Jul 28, 2016 at 6:00 PM


Visibility: N/A

Pressure: 29.71 "Hg

Humidity: 75%

Dew Point: 79 °F

Location of FoochowLocation

Past Weather in Foochow — Graph

°F

Foochow Temperature Yesterday

Maximum temperature yesterday: 93 °F (at 12:00 PM)
Minimum temperature yesterday: 81 °F (at 1:00 AM)
Average temperature yesterday: 86 °F

High & Low Weather Summary for the Past Weeks

 TemperatureHumidityPressure
High95 °F (Jul 28, 3:00 PM)100% (Jul 17, 3:00 PM)29.86 "Hg (Jul 17, 3:00 PM)
Low77 °F (Jul 17, 3:00 PM)52% (Jul 25, 1:00 PM)29.62 "Hg (Jul 13, 5:00 PM)
Average84 °F81%29.75 "Hg
* Reported Jul 13 5:00 PM — Jul 28 5:00 PM, Foochow, Weather by CustomWeather, © 2016

Note: Actual official high and low records may vary slightly from our data, if they occured in-between our weather recording intervals... More about our weather records

Advertising

Foochow Weather History for the Previous 24 Hours

Scroll right to see more
 ConditionsComfort  
Time TempWeatherWind HumidityBarometerVisibility
5:00 PM
Thu, Jul 28
90 °FPassing clouds.8 mph71%29.71 "HgN/A
4:00 PM91 °FPassing clouds.10 mph67%29.68 "HgN/A
3:00 PM95 °FPassing clouds.13 mph60%29.68 "HgN/A
2:00 PM93 °FPassing clouds.13 mph67%29.71 "Hg6 mi
1:00 PM91 °FPassing clouds.15 mph71%29.71 "Hg6 mi
12:00 PM91 °FPassing clouds.15 mph71%29.74 "Hg6 mi
11:00 AM90 °FClear.13 mph71%29.74 "Hg4 mi
10:00 AM90 °FClear.10 mph71%29.74 "Hg5 mi
9:00 AM88 °FClear.6 mph70%29.74 "Hg5 mi
8:00 AM86 °FClear.6 mph75%29.77 "Hg5 mi
7:00 AM82 °FClear.8 mph84%29.74 "Hg4 mi
6:00 AM81 °FClear.6 mph84%29.74 "Hg5 mi
5:00 AM82 °FPassing clouds.6 mph74%29.74 "HgN/A
4:00 AM81 °FClear.6 mph79%29.71 "Hg10 mi
3:00 AM82 °FPassing clouds.6 mph74%29.74 "HgN/A
2:00 AM81 °FClear.3 mph79%29.74 "Hg10 mi
1:00 AM82 °FClear.6 mph70%29.74 "Hg10 mi
12:00 AM84 °FPassing clouds.6 mph66%29.74 "HgN/A
11:00 PM
Wed, Jul 27
84 °FClear.6 mph62%29.77 "Hg10 mi
10:00 PM84 °FPassing clouds.3 mph66%29.77 "HgN/A
9:00 PM86 °FPassing clouds.6 mph55%29.77 "HgN/A
8:00 PM86 °FClear.6 mph62%29.74 "Hg10 mi
7:00 PM88 °FClear.8 mph59%29.71 "Hg5 mi
6:00 PM90 °FPassing clouds.6 mph71%29.71 "HgN/A
Weather by CustomWeather, © 2016

See weather overviewHow to use our weather pages